User: anonymous   Login
Location: Unspecified
(0.0000°N, 0.0000°E)
Time: 09:47:16
(UTC+02:00)
Language:

Cosmos 1758 - Orbit

View from above orbital plane
View from above orbital plane
View from above satellite
View from above satellite

Ground track
Ground track

The orbit data is extracted from the following two-line orbital elements,

1 16791U 86046A   15186.09063822  .00001125  00000-0  81013-4 0  9995
2 16791 082.4696 006.2951 0017099 359.6394 000.4816 15.03144464578505
Epoch (UTC): 05 July 2015 02:10:31
Eccentricity: 0.0017099
inclination: 82.4696°
perigee height: 545 km
apogee height: 569 km
right ascension of ascending node: 6.2951°
argument of perigee: 359.6394°
revolutions per day: 15.03144464
mean anomaly at epoch: 0.4816°
orbit number at epoch: 57850

The dashed part of the orbit path shows where the satellite is in the earth's shadow,  

DLR